Regional Weather Roundup
Issued by NWS Austin/San Antonio, TX

Home | Current Version | Previous Version | Text Only | Print | Product List | Glossary On
Versions: 1 2 3 4 5 6 7 8 9 10 11 12 13 14 15 16 17 18 19 20 21 22 23 24 25 26 27 28 29 30 31 32 33 34 35 36 37 38 39 40 41 42 43 44 45 46 47 48 49 50
754
ASUS44 KEWX 260410
RWREWX
SOUTH TEXAS REGIONAL WEATHER ROUNDUP
NATIONAL WEATHER SERVICE AUSTIN/SAN ANTONIO TX
1100 PM CDT MON MAR 25 2019

NOTE: "FAIR" INDICATED FEW OR NO CLOUDS BELOW 12,000 FEET WITH NO
SIGNIFICANT WEATHER AND/OR OBSTRUCTIONS TO VISIBILITY.

* - THESE STATIONS ARE NOT NWS OR FAA STATIONS...AND ARE NOT SUBJECT
    TO NWS AND FAA QUALITY CONTROL.

TXZ171-172-183>190-260500-
TEXAS HILL COUNTRY AND EDWARDS PLATEAU

CITY           SKY/WX    TMP DP  RH WIND       PRES   REMARKS
JUNCTION       PTCLDY    63  46  54 NE8       30.24R
*LLANO         CLEAR     64  46  52 NE5       30.27R
BURNET         NOT AVBL
*HORSESHOE BAY CLEAR     63  46  52 E3        30.23R
*KERRVILLE     CLEAR     64  45  49 E7        30.22R
*FREDERICKSBRG CLEAR     60  45  57 CALM      30.24R
*ROCKSPRINGS   CLOUDY    64  48  55 E7        30.27R
*BOERNE STAGE  CLEAR     61  45  55 CALM      30.23R
*CASTROVILLE   CLEAR     70  44  39 E7        30.20R
HONDO          CLEAR     68  58  70 NE9       30.18R
*UVALDE        MOCLDY    72  60  66 E9        30.18R
DEL RIO        CLEAR     68  66  93 CALM      30.15R FOG
LAUGHLIN AFB   CLEAR     66  63  90 CALM      30.16R
CARRIZO SPRGS  MOCLDY    70  59  68 CALM      30.14R
*FAITH RANCH     N/A     73  63  68 SE6       30.14R
$$

TXZ173-191>194-202-209-217>225-228-260500-
CENTRAL AND SOUTH CENTRAL TEXAS

CITY           SKY/WX    TMP DP  RH WIND       PRES   REMARKS
GEORGETOWN     CLEAR     59  47  64 N6        30.25R
AUSTIN/BERGSTM PTCLDY    61  48  62 NE8       30.20R
AUSTIN/MABRY   CLEAR     68  44  42 NE6       30.22R
*AUSTIN/EXEC   PTCLDY    63  46  55 CALM      30.22R
*LAGO VISTA    CLEAR     62  44  51 NE9       30.23R
SAN MARCOS     CLEAR     64  47  53 NE10      30.20R
NEW BRAUNFELS  CLEAR     64  48  56 NE10      30.18R
RANDOLPH AFB   CLEAR     66  48  51 NE7       30.19R
PT SAN ANTONIO CLEAR     70  48  44 NE10      30.17R
SAN ANTONIO    PTCLDY    68  46  45 NE8       30.19R
STINSON FIELD  PTCLDY    71  44  37 NE9G18    30.17R
*LA GRANGE     CLEAR     66  51  57 CALM      30.17R
*GIDDINGS      CLEAR     69  51  52 CALM      30.19
*GONZALES      CLEAR     66  51  58 NE6       30.18R
$$

TXZ163>164-176>182-195>201-210>213-226-227-235-260500-
SOUTHEAST TEXAS

CITY           SKY/WX    TMP DP  RH WIND       PRES   REMARKS
COLLEGE STN    CLEAR     66  51  58 N14       30.20R
*BRYAN         CLEAR     62  50  64 N8        30.22R
*CALDWELL      CLEAR     63  50  62 N7        30.21S
*CROCKETT        N/A     63  48  59 N5        30.25R
*BRENHAM       CLEAR     64  49  58 N7        30.20R
HUNTSVILLE     CLEAR     60  50  69 N3        30.20R
CONROE         CLEAR     62  49  62 N5        30.19R
HOUSTON BUSH   PTCLDY    66  54  65 N8        30.18R
HOUSTON HOBBY  FAIR      71  65  81 E5        30.16R
*HOUSTON SW AP CLOUDY    70  67  90 NE6       30.17R
PEARLAND       CLOUDY    71  67  87 SE5       30.18R
HOUSTON HOOKS  FAIR      67  50  54 NE6       30.18R
ELLINGTON FLD  PTCLDY    72  64  78 CALM      30.17R
SUGAR LAND     FAIR      72  53  51 NE8       30.16R
*HOUSTON EXEC  FAIR      63  52  67 NE8       30.19R
*CLEVELAND MUN FAIR      63  53  69 N6        30.19R
*WHARTON       CLOUDY    72  47  41 NE5       30.17R
*COLUMBUS      FAIR      67  45  45 N6        30.19R
*EAGLE LAKE    CLEAR     63  52  67 N6        30.17
$$

TXZ214>216-236>238-260500-
THE UPPER TEXAS COAST

CITY           SKY/WX    TMP DP  RH WIND       PRES   REMARKS
*ORANGE          N/A     60  60 100 CALM      30.18R FOG
PORT ARTHUR    FAIR      62  60  93 W3        30.16R FOG
GALVESTON      FAIR      67  63  87 S5        30.16R
ANGLETON       FAIR      68  66  93 E3        30.16R
*BAY CITY      CLOUDY    69  69 100 CALM      30.16R
PALACIOS       PTCLDY    71  70  96 CALM      30.16R
$$

TXZ229>234-239>247-260500-
TEXAS COASTAL BEND AND RIO GRANDE PLAINS

CITY           SKY/WX    TMP DP  RH WIND       PRES   REMARKS
VICTORIA       PTCLDY    70  66  87 E3        30.16R
*BEEVILLE      MOCLDY    71  65  83 N5        30.16R
ROCKPORT       CLEAR     69  68  96 S5        30.14R FOG
*PORT ARANSAS  CLEAR     69  68  97 SE5       30.16R
*PORT LAVACA   CLOUDY    72  69  91 CALM      30.16R
*INGLESIDE     FOG       68  66  93 S5        30.14R VSB 1/2
CORPUS CHRISTI MOCLDY    68  65  90 SE5       30.14R
CORPUS NAS     CLOUDY    72  70  93 S7        30.13R
*ROBSTOWN      NOT AVBL
ALICE          FOG       64  32  30 S3        30.14R VSB 1/4
KINGSVILLE NAS MOCLDY    70  68  93 SE5       30.14R FOG
COTULLA        MOCLDY    71  64  78 E8        30.15R
LAREDO         PTCLDY    72  66  81 CALM      30.14R
$$

TXZ248>255-260500-
DEEP SOUTH TEXAS

CITY           SKY/WX    TMP DP  RH WIND       PRES   REMARKS
BROWNSVILLE    MOCLDY    72  71  97 E7        30.14R
PORT ISABEL    FAIR      72  69  90 E6        30.13R
HARLINGEN      CLOUDY    70  68  93 SE7       30.13R
*HEBBRONVILLE  CLOUDY    69  66  92 SE3       30.16R
MCALLEN        MOCLDY    75  70  84 SE12      30.13R
*WESLACO       MOCLDY    71  67  87 SE5       30.13
FALFURRIAS     CLOUDY    72  68  87 E3        30.13R
EDINBURG       CLOUDY    74  68  82 E6        30.14R
*ZAPATA        FAIR      71  66  84 E5        30.14R
$$

TXZ213>215-236>238-242>244-246-247-251-254-255-260500-
CMAN STATIONS

STATION/POSITION TIME  TEMP    WIND        PRES    WAVE
                       AIR SEA DIR/SP/G            HT/PER
                 (UTC) (F)     (DEG/KT/KT) (MB)    (FT/S)
SABINE PASS      0342   67 71              1022.5
SEA RIM ST PARK  0400   63     320/  6/  6 1021.1
NORTH JETTY/GLS  0342   84 68              1020.7
EAGLE POINT      0342   68 70              1021.5
MORGANS POINT    0342   68 68              1021.5
PORT O`CONNOR    0342   70 69              1020.5
MALAQUITE BEACH  0342   69 70              1020.0
BAFFIN BAY       0342   70 71              1020.7
PORT ISABEL      0342   71 71              1020.4
$$




USA.gov is the U.S. government's official web portal to all federal, state and local government web resources and services.